カタログに戻る

CZ-6A DEB

運用中PO
NORAD 64648·DEBRIS·🇨🇳 China

打ち上げ Aug 6, 2024 から Taiyuan Satellite Launch Center

Loading…

次のパス (今後24時間)

TLE

最新Source: Space-Track

元期: Sep 14, 2026, 10:45 UTC

1 64648U 24140AEN 26257.44825425  .00001639  00000-0  69559-3 0  9991
2 64648  88.9874 263.4197 0041032 253.2994 106.3693 14.24488843100218

AllMySatでCZ-6A DEBをリアルタイム追跡

Download on the App Store